EW5462 Weather Reports


time (UTC)temp
C
wind
direction
speed
KPH
gust
KPH
rain 1hr
cm
rain 24hr
cm
rain mn
cm
humidity
%
barometer
mb
20260510192117 38 208 8.0 12.9 0.00 0.00 0.00 13 1008.3
20260510191117 38 183 8.0 11.3 0.00 0.00 0.00 14 1008.4
20260510190116 39 189 8.0 12.9 0.00 0.00 0.00 14 1008.5
20260510185117 38 194 6.4 8.0 0.00 0.00 0.00 13 1008.6
20260510184117 38 213 8.0 11.3 0.00 0.00 0.00 15 1008.6
20260510183017 37 179 4.8 9.7 0.00 0.00 0.00 15 1008.7
20260510182017 37 153 12.9 16.1 0.00 0.00 0.00 14 1008.8
20260510181316 37 207 4.8 9.7 0.00 0.00 0.00 14 1008.8
20260510180318 37 215 9.7 12.9 0.00 0.00 0.00 13 1008.8
20260510175317 37 199 6.4 11.3 0.00 0.00 0.00 15 1008.8
20260510174317 37 211 3.2 8.0 0.00 0.00 0.00 15 1008.9
20260510173317 36 206 4.8 9.7 0.00 0.00 0.00 16 1008.8
20260510172417 36 215 8.0 11.3 0.00 0.00 0.00 15 1008.7
20260510171416 36 197 6.4 9.7 0.00 0.00 0.00 14 1008.6
20260510170417 35 197 9.7 11.3 0.00 0.00 0.00 16 1008.6
20260510165416 35 198 9.7 12.9 0.00 0.00 0.00 18 1008.5
20260510164416 35 219 9.7 12.9 0.00 0.00 0.00 18 1008.4
20260510163416 34 224 8.0 11.3 0.00 0.00 0.00 19 1008.4
20260510162417 34 201 3.2 8.0 0.00 0.00 0.00 22 1008.3
20260510161417 33 221 8.0 9.7 0.00 0.00 0.00 20 1008.2
20260510160317 32 224 3.2 9.7 0.00 0.00 0.00 21 1008.1
20260510155317 31 243 1.6 4.8 0.00 0.00 0.00 21 1008.0
20260510154317 31 244 3.2 4.8 0.00 0.00 0.00 20 1008.0
20260510153317 31 0.0 0.0 0.00 0.00 0.00 21 1007.9
20260510152316 30 0.0 0.0 0.00 0.00 0.00 22 1007.9
20260510151317 29 0.0 0.0 0.00 0.00 0.00 22 1007.8
20260510150317 28 344 0.0 0.0 0.00 0.00 0.00 21 1007.7
20260510145317 28 0.0 0.0 0.00 0.00 0.00 22 1007.7
20260510144316 28 345 0.0 0.0 0.00 0.00 0.00 22 1007.7
20260510143317 27 43 1.6 4.8 0.00 0.00 0.00 24 1007.6
20260510142316 26 41 3.2 6.4 0.00 0.00 0.00 27 1007.5
20260510141717 25 0.0 0.0 0.00 0.00 0.00 28 1007.5
20260510141117 25 28 1.6 3.2 0.00 0.00 0.00 26 1007.5
20260510140017 24 37 1.6 3.2 0.00 0.00 0.00 25 1007.4
20260510135017 23 74 0.0 1.6 0.00 0.00 0.00 27 1007.3
20260510134016 22 0.0 0.0 0.00 0.00 0.00 27 1007.2
20260510133017 21 0.0 0.0 0.00 0.00 0.00 29 1007.2
20260510132017 21 125 0.0 0.0 0.00 0.00 0.00 30 1007.0
20260510131017 20 147 0.0 0.0 0.00 0.00 0.00 30 1006.9
20260510130016 21 123 0.0 0.0 0.00 0.00 0.00 30 1006.8
20260510125017 20 124 0.0 0.0 0.00 0.00 0.00 30 1006.8
20260510124216 20 0.0 0.0 0.00 0.00 0.00 29 1006.8
20260510123216 21 63 0.0 1.6 0.00 0.00 0.00 29 1006.8
20260510122217 21 57 1.6 3.2 0.00 0.00 0.00 28 1006.7
20260510121217 21 92 1.6 3.2 0.00 0.00 0.00 29 1006.6
20260510120217 21 105 0.0 1.6 0.00 0.00 0.00 30 1006.6
20260510115217 21 108 3.2 4.8 0.00 0.00 0.00 31 1006.6
20260510114216 22 74 3.2 4.8 0.00 0.00 0.00 28 1006.5
20260510113217 21 355 1.6 3.2 0.00 0.00 0.00 28 1006.5
20260510112216 21 1 3.2 4.8 0.00 0.00 0.00 27 1006.5
20260510111217 21 99 4.8 4.8 0.00 0.00 0.00 27 1006.4
20260510110216 21 113 1.6 1.6 0.00 0.00 0.00 28 1006.4
20260510105217 21 109 3.2 4.8 0.00 0.00 0.00 27 1006.4
20260510105017 21 114 4.8 6.4 0.00 0.00 0.00 26 1006.4
20260510104017 21 107 4.8 6.4 0.00 0.00 0.00 27 1006.3
20260510103017 21 96 3.2 4.8 0.00 0.00 0.00 28 1006.2
20260510102616 21 104 4.8 6.4 0.00 0.00 0.00 29 1006.2
20260510101616 22 26 1.6 3.2 0.00 0.00 0.00 30 1006.2
20260510100617 22 12 3.2 4.8 0.00 0.00 0.00 31 1006.2
20260510095616 22 0.0 0.0 0.00 0.00 0.00 31 1006.2
20260510094617 23 0.0 0.0 0.00 0.00 0.00 30 1006.2
20260510093617 22 0.0 0.0 0.00 0.00 0.00 31 1006.2
20260510092617 22 0.0 0.0 0.00 0.00 0.00 31 1006.2
20260510092417 23 0.0 0.0 0.00 0.00 0.00 30 1006.2
20260510091817 22 179 1.6 3.2 0.00 0.00 0.00 29 1006.2
20260510090816 22 198 0.0 1.6 0.00 0.00 0.00 30 1006.3
20260510085817 22 167 1.6 3.2 0.00 0.00 0.00 31 1006.3
20260510084816 23 0.0 0.0 0.00 0.00 0.00 31 1006.3
20260510083817 23 257 0.0 3.2 0.00 0.00 0.00 30 1006.3
20260510082817 24 0.0 0.0 0.00 0.00 0.00 30 1006.4
20260510081817 25 271 3.2 3.2 0.00 0.00 0.00 29 1006.4
20260510080817 25 253 3.2 3.2 0.00 0.00 0.00 28 1006.4
20260510075817 24 252 0.0 0.0 0.00 0.00 0.00 29 1006.5
20260510074817 25 0.0 0.0 0.00 0.00 0.00 28 1006.5
20260510073817 25 0.0 0.0 0.00 0.00 0.00 28 1006.6
20260510072817 25 0.0 0.0 0.00 0.00 0.00 27 1006.5
20260510071816 25 0.0 0.0 0.00 0.00 0.00 28 1006.5
20260510070817 25 171 1.6 3.2 0.00 0.00 0.00 27 1006.4
20260510065817 26 0.0 0.0 0.00 0.00 0.00 26 1006.4
20260510065717 27 0.0 0.0 0.00 0.00 0.00 26 1006.4
20260510064716 27 265 4.8 4.8 0.00 0.00 0.00 25 1006.4
20260510063717 27 301 3.2 4.8 0.00 0.00 0.00 25 1006.6
20260510062717 27 0.0 0.0 0.00 0.00 0.00 24 1006.5
20260510061716 28 311 6.4 8.0 0.00 0.00 0.00 24 1006.6
20260510060717 27 0.0 0.0 0.00 0.00 0.00 24 1006.5
20260510055717 28 307 3.2 6.4 0.00 0.00 0.00 22 1006.5
20260510054716 28 326 6.4 8.0 0.00 0.00 0.00 21 1006.5
20260510053717 29 231 3.2 3.2 0.00 0.00 0.00 20 1006.4
20260510051716 28 145 3.2 4.8 0.00 0.00 0.00 20 1006.1
20260510050717 29 148 6.4 8.0 0.00 0.00 0.00 20 1005.9
20260510045716 29 158 6.4 8.0 0.00 0.00 0.00 20 1005.7
20260510044717 30 175 6.4 8.0 0.00 0.00 0.00 18 1005.5
20260510043716 30 158 4.8 6.4 0.00 0.00 0.00 17 1005.4
20260510042717 30 170 6.4 9.7 0.00 0.00 0.00 17 1005.3
20260510041716 30 193 3.2 9.7 0.00 0.00 0.00 15 1005.2
20260510040717 31 191 6.4 8.0 0.00 0.00 0.00 13 1005.1
20260510035717 31 196 3.2 4.8 0.00 0.00 0.00 13 1004.9
20260510033717 32 213 6.4 11.3 0.00 0.00 0.00 12 1004.6
20260510032716 32 216 4.8 8.0 0.00 0.00 0.00 12 1004.4
20260510031717 32 219 4.8 6.4 0.00 0.00 0.00 13 1004.3
20260510030716 33 222 4.8 8.0 0.00 0.00 0.00 14 1004.1
20260510025717 33 222 6.4 8.0 0.00 0.00 0.00 14 1003.9
20260510024717 33 222 4.8 6.4 0.00 0.00 0.00 16 1003.9
20260510023716 35 210 4.8 6.4 0.00 0.00 0.00 16 1003.8
20260510022717 36 238 6.4 8.0 0.00 0.00 0.00 14 1003.6
20260510021717 36 245 6.4 9.7 0.00 0.00 0.00 13 1003.6
20260510020716 37 253 8.0 9.7 0.00 0.00 0.00 13 1003.6
20260510015717 37 253 9.7 12.9 0.00 0.00 0.00 13 1003.5
20260510014717 38 246 8.0 11.3 0.00 0.00 0.00 14 1003.4
20260510013716 38 248 9.7 11.3 0.00 0.00 0.00 13 1003.3
20260510012717 38 256 9.7 11.3 0.00 0.00 0.00 12 1003.3
20260510011716 39 261 11.3 14.5 0.00 0.00 0.00 12 1003.3
20260510010717 39 252 11.3 16.1 0.00 0.00 0.00 12 1003.3
20260510005716 40 258 9.7 14.5 0.00 0.00 0.00 11 1003.3
20260510004716 40 251 14.5 19.3 0.00 0.00 0.00 11 1003.2
20260510003717 40 261 9.7 11.3 0.00 0.00 0.00 10 1003.2
20260510002716 40 266 8.0 11.3 0.00 0.00 0.00 9 1003.2
20260510001717 40 253 9.7 11.3 0.00 0.00 0.00 9 1003.3
20260510000716 40 259 8.0 11.3 0.00 0.00 0.00 9 1003.4
20260509235717 41 252 9.7 12.9 0.00 0.00 0.00 9 1003.3
20260509234717 41 228 14.5 17.7 0.00 0.00 0.00 9 1003.4
20260509233716 41 236 9.7 12.9 0.00 0.00 0.00 8 1003.5
20260509232716 41 229 11.3 14.5 0.00 0.00 0.00 8 1003.5
20260509231717 41 225 8.0 9.7 0.00 0.00 0.00 8 1003.6
20260509231017 41 239 6.4 8.0 0.00 0.00 0.00 8 1003.7
20260509230517 41 226 11.3 12.9 0.00 0.00 0.00 8 1003.7
20260509225516 41 219 9.7 11.3 0.00 0.00 0.00 8 1003.9
20260509224517 41 228 8.0 9.7 0.00 0.00 0.00 8 1004.0
20260509222517 41 246 8.0 14.5 0.00 0.00 0.00 9 1004.3
20260509221517 41 251 11.3 16.1 0.00 0.00 0.00 8 1004.3
20260509220517 40 165 6.4 11.3 0.00 0.00 0.00 9 1004.6
20260509215517 40 233 3.2 4.8 0.00 0.00 0.00 10 1004.8
20260509214517 40 293 12.9 16.1 0.00 0.00 0.00 10 1004.9
20260509214217 40 295 11.3 14.5 0.00 0.00 0.00 10 1005.0
20260509213217 40 196 8.0 11.3 0.00 0.00 0.00 11 1005.2
20260509212217 40 215 6.4 9.7 0.00 0.00 0.00 10 1005.4
20260509211217 39 247 11.3 12.9 0.00 0.00 0.00 9 1005.7
20260509210216 40 232 11.3 14.5 0.00 0.00 0.00 9 1005.8
20260509204217 40 227 8.0 14.5 0.00 0.00 0.00 9 1006.1
20260509203216 39 183 6.4 9.7 0.00 0.00 0.00 12 1006.3
20260509202217 39 227 9.7 12.9 0.00 0.00 0.00 10 1006.4
20260509201217 37 288 4.8 4.8 0.00 0.00 0.00 10 1006.5
20260509201017 37 106 1.6 3.2 0.00 0.00 0.00 11 1006.5
20260509200017 37 267 6.4 11.3 0.00 0.00 0.00 10 1006.8
20260509195016 38 222 9.7 11.3 0.00 0.00 0.00 9 1006.9
20260509194017 37 304 6.4 9.7 0.00 0.00 0.00 9 1007.0
20260509193017 37 241 9.7 11.3 0.00 0.00 0.00 9 1007.2